Location: Charlottesville
(38.0290°N, 78.4770°W)
Time: 16:12:46
(UTC-04:00)

N. Korean satellite - Pass Details

Date: 16 October 2017
Orbit: 459 x 517 km, 97.2° (Epoch: 18 October)

Event Time Altitude Azimuth Distance (km) Brightness Sun altitude
Rises 20:09:27 0° 201° (SSW) 2,541 10.5 -19.5°
Reaches altitude 10° 20:12:03 10° 222° (SW) 1,654 9.7 -20.0°
Maximum altitude 20:14:29 17° 265° (W) 1,257 9.6 -20.4°
Drops below altitude 10° 20:16:54 10° 309° (NW) 1,643 10.0 -20.9°
Sets 20:19:29 0° 330° (NNW) 2,515 10.7 -21.4°
